Home   Weather   Elmshorn   Past weeks

Flag for Germany Past Weather in Elmshorn, Schleswig-Holstein, Germany — Yesterday and Last 2 Weeks

Now
30 °F

Chilly.


Feels Like: 30 °F
Forecast: 26 / 35 °F
Wind: No wind

Location: Hamburg-Fuhlsbuettel

Current Time: Dec 4, 2016 at 9:38:52 pm

Latest Report: Dec 4, 2016 at 9:20 pm


Visibility: N/A

Pressure: 30.42 "Hg

Humidity: 100%

Dew Point: 30 °F

Location of ElmshornLocation

Past Weather in Elmshorn — Graph

°F

Elmshorn Temperature Yesterday

Maximum temperature yesterday: 43 °F (at 2:20 pm)
Minimum temperature yesterday: 23 °F (at 5:20 am)
Average temperature yesterday: 29 °F

High & Low Weather Summary for the Past Weeks

 TemperatureHumidityPressure
High61 °F (Nov 21, 1:20 pm)100% (Nov 23, 6:50 pm)30.54 "Hg (Nov 23, 6:50 pm)
Low19 °F (Nov 29, 2:20 am)53% (Dec 2, 12:20 pm)29.30 "Hg (Nov 20, 3:50 pm)
Average39 °F86%30.11 "Hg
* Reported Nov 19 8:20 pm — Dec 4 8:20 pm, Elmshorn, Weather by CustomWeather, © 2016

Note: Actual official high and low records may vary slightly from our data, if they occured in-between our weather recording intervals... More about our weather records

Advertising

Elmshorn Weather History for the Previous 24 Hours

Scroll right to see more
 ConditionsComfort  
Time TempWeatherWind HumidityBarometerVisibility
8:20 pm
Sun, Dec 4
32 °FFog.No wind93%30.42 "HgN/A
7:50 pm32 °FFog.No wind100%30.42 "HgN/A
7:20 pm34 °FPassing clouds.No wind93%30.42 "HgN/A
6:50 pm36 °FPassing clouds.No wind93%30.42 "HgN/A
6:20 pm36 °FPassing clouds.No wind93%30.42 "HgN/A
5:50 pm36 °FPassing clouds.No wind93%30.42 "HgN/A
5:20 pm36 °FPassing clouds.No wind93%30.42 "HgN/A
4:50 pm36 °FPassing clouds.3 mph93%30.42 "HgN/A
4:20 pm36 °FPassing clouds.2 mph93%30.39 "HgN/A
3:50 pm37 °FPartly sunny.3 mph87%30.39 "HgN/A
3:20 pm37 °FPartly sunny.2 mph87%30.39 "HgN/A
2:50 pm37 °FPartly sunny.1 mph87%30.39 "HgN/A
2:20 pm37 °FPartly sunny.3 mph87%30.42 "HgN/A
1:50 pm37 °FPartly sunny.3 mph87%30.42 "HgN/A
1:20 pm37 °FPartly sunny.2 mph93%30.42 "HgN/A
12:50 pm36 °FPartly sunny.No wind100%30.42 "HgN/A
12:20 pm36 °FPartly sunny.1 mph100%30.42 "HgN/A
11:50 am34 °FPartly sunny.1 mph100%30.42 "HgN/A
11:20 am34 °FPartly sunny.2 mph100%30.42 "HgN/A
10:50 am32 °FPartly sunny.2 mph100%30.42 "HgN/A
10:20 am32 °FPartly sunny.No wind100%30.42 "HgN/A
9:50 am32 °FPartly sunny.No wind100%30.42 "HgN/A
9:20 am32 °FPartly sunny.No wind100%30.39 "Hg6 mi
8:50 am30 °FPartly sunny.No wind100%30.39 "Hg6 mi
8:20 am30 °FPartly sunny.No wind100%30.39 "Hg5 mi
7:50 am30 °FPassing clouds.2 mph100%30.39 "Hg4 mi
7:20 am30 °FPassing clouds.No wind100%30.39 "Hg4 mi
6:50 am30 °FPassing clouds.No wind100%30.36 "Hg4 mi
6:20 am30 °FPassing clouds.No wind100%30.36 "Hg4 mi
5:50 am28 °FPassing clouds.No wind100%30.36 "Hg4 mi
5:20 am28 °FPassing clouds.No wind100%30.36 "Hg4 mi
4:50 am28 °FPassing clouds.No wind100%30.36 "Hg4 mi
4:20 am27 °FIce fog.No wind100%30.36 "Hg3 mi
3:20 am25 °FIce fog.1 mph93%30.36 "Hg3 mi
2:50 am25 °FCold.3 mph100%30.39 "Hg1 mi
2:20 am25 °FCold.No wind100%30.36 "Hg0 mi
1:50 am25 °FCold.No wind100%30.36 "Hg0 mi
1:20 am25 °FCold.No wind100%30.36 "Hg0 mi
12:50 am23 °FCold.No wind100%30.36 "Hg0 mi
12:20 am25 °FCold.No wind93%30.36 "Hg0 mi
11:50 pm
Sat, Dec 3
25 °FCold.No wind100%30.36 "Hg0 mi
11:20 pm25 °FIce fog.No wind100%30.36 "Hg0 mi
10:50 pm25 °FIce fog.No wind100%30.36 "Hg0 mi
10:20 pm25 °FIce fog.No wind100%30.36 "Hg0 mi
9:50 pm27 °FIce fog.No wind100%30.36 "Hg0 mi
9:20 pm27 °FChilly.No wind100%30.36 "Hg1 mi
Weather by CustomWeather, © 2016

See weather overviewHow to use our weather pages